Tracking 19709 objects as of 20-Jun-2019
HD Live streaming from Space Station
objects crossing your sky now

RADUGA 26

Track RADUGA 26 now!
RADUGA 26 is classified as:


NORAD ID: 21016
Int'l Code: 1990-112A
Perigee: 35,777.1 km
Apogee: 35,836.0 km
Inclination: 14.9 °
Period: 1,436.8 minutes
Semi major axis: 42177 km
RCS: 2.5118 m2 (large)
Launch date: December 20, 1990
Source: Commonwealth of Independent States (former USSR) (CIS)
Launch site: TYURATAM MISSILE AND SPACE COMPLEX (TTMTR)
aabbcc
Your satellite tracking list
Your tracking list is empty




NASA's NSSDC Master Catalog

Two Line Element Set (TLE):
1 21016U 90112A   19170.75836174 -.00000180 +00000-0 +00000-0 0  9992
2 21016 014.8523 358.6206 0006985 024.3856 240.2153 01.00226162104643
Source of the keplerian elements: AFSPC